owner,sensor,date,latitude,longitude,vertical_datum,wind_speed,wind_to_direction,wind_speed_of_gust,qcFlag 
DISL,ioos:station:DISL:KATA:1,2017-12-01T00:00:00Z,30.2583,-88.2131,0.0,3.9,295.0,99.0,'11111222,11111222,11144222' 
DISL,ioos:station:DISL:KATA:1,2017-12-01T00:30:00Z,30.2583,-88.2131,0.0,2.61,258.9,-9999.0,'1111122,1111122,1111122' 
DISL,ioos:station:DISL:KATA:1,2017-12-01T01:00:00Z,30.2583,-88.2131,0.0,5.4,198.0,99.0,'11111222,11111222,11144222' 
DISL,ioos:station:DISL:KATA:1,2017-12-01T01:30:00Z,30.2583,-88.2131,0.0,4.61,197.1,-9999.0,'1111122,1111122,1111122' 
DISL,ioos:station:DISL:KATA:1,2017-12-01T02:00:00Z,30.2583,-88.2131,0.0,3.6,229.0,99.0,'11111222,11111222,11144222' 
DISL,ioos:station:DISL:KATA:1,2017-12-01T02:30:00Z,30.2583,-88.2131,0.0,3.57,229.5,-9999.0,'1111122,1111122,1111122' 
DISL,ioos:station:DISL:KATA:1,2017-12-01T03:00:00Z,30.2583,-88.2131,0.0,3.8,238.0,99.0,'11111222,11111222,11144222' 
DISL,ioos:station:DISL:KATA:1,2017-12-01T03:30:00Z,30.2583,-88.2131,0.0,3.49,264.0,-9999.0,'1111122,1111122,1111122' 
DISL,ioos:station:DISL:KATA:1,2017-12-01T04:00:00Z,30.2583,-88.2131,0.0,3.8,281.0,99.0,'11111222,11111222,11144222' 
DISL,ioos:station:DISL:KATA:1,2017-12-01T04:30:00Z,30.2583,-88.2131,0.0,3.72,304.5,-9999.0,'1111122,1111122,1111122' 
DISL,ioos:station:DISL:KATA:1,2017-12-01T05:00:00Z,30.2583,-88.2131,0.0,4.4,308.0,99.0,'11111222,11111222,11144222' 
DISL,ioos:station:DISL:KATA:1,2017-12-01T05:30:00Z,30.2583,-88.2131,0.0,3.76,309.9,-9999.0,'1111122,1111122,1111122' 
DISL,ioos:station:DISL:KATA:1,2017-12-01T06:00:00Z,30.2583,-88.2131,0.0,4.4,331.0,99.0,'11111222,11111222,11144222' 
DISL,ioos:station:DISL:KATA:1,2017-12-01T06:30:00Z,30.2583,-88.2131,0.0,4.05,332.7,-9999.0,'1111122,1111122,1111122' 
DISL,ioos:station:DISL:KATA:1,2017-12-01T07:00:00Z,30.2583,-88.2131,0.0,3.9,357.0,99.0,'11111222,11111222,11144222' 
DISL,ioos:station:DISL:KATA:1,2017-12-01T07:30:00Z,30.2583,-88.2131,0.0,3.6,356.6,-9999.0,'1111122,1111122,1111122' 
DISL,ioos:station:DISL:KATA:1,2017-12-01T08:00:00Z,30.2583,-88.2131,0.0,4.7,6.0,99.0,'11111222,11111222,11144222' 
DISL,ioos:station:DISL:KATA:1,2017-12-01T08:30:00Z,30.2583,-88.2131,0.0,3.42,4.852,-9999.0,'1111122,1111122,1111122' 
DISL,ioos:station:DISL:KATA:1,2017-12-01T09:00:00Z,30.2583,-88.2131,0.0,4.1,355.0,99.0,'11111222,11111222,11144222' 
DISL,ioos:station:DISL:KATA:1,2017-12-01T09:30:00Z,30.2583,-88.2131,0.0,3.03,2.596,-9999.0,'1111122,1111122,1111122' 
DISL,ioos:station:DISL:KATA:1,2017-12-01T10:00:00Z,30.2583,-88.2131,0.0,3.4,9.0,99.0,'11111222,11111222,11144222' 
DISL,ioos:station:DISL:KATA:1,2017-12-01T10:30:00Z,30.2583,-88.2131,0.0,3.9,16.98,-9999.0,'1111122,1111122,1111122' 
DISL,ioos:station:DISL:KATA:1,2017-12-01T11:00:00Z,30.2583,-88.2131,0.0,3.9,33.0,99.0,'11111222,11111222,11144222' 
DISL,ioos:station:DISL:KATA:1,2017-12-01T11:30:00Z,30.2583,-88.2131,0.0,2.69,55.3,-9999.0,'1111122,1111122,1111122' 
DISL,ioos:station:DISL:KATA:1,2017-12-01T12:00:00Z,30.2583,-88.2131,0.0,1.7,112.0,99.0,'11111222,11111222,11144222' 
DISL,ioos:station:DISL:KATA:1,2017-12-01T12:30:00Z,30.2583,-88.2131,0.0,0.95,132.6,-9999.0,'1111122,1111122,1111122' 
DISL,ioos:station:DISL:KATA:1,2017-12-01T13:00:00Z,30.2583,-88.2131,0.0,0.7,167.0,99.0,'11111222,11111222,11144222' 
DISL,ioos:station:DISL:KATA:1,2017-12-01T13:30:00Z,30.2583,-88.2131,0.0,0.14,40.2,-9999.0,'1111122,1111122,1111122' 
DISL,ioos:station:DISL:KATA:1,2017-12-01T14:00:00Z,30.2583,-88.2131,0.0,1.6,28.0,99.0,'11111222,11111222,11144222' 
DISL,ioos:station:DISL:KATA:1,2017-12-01T14:30:00Z,30.2583,-88.2131,0.0,1.36,67.07,-9999.0,'1111122,1111122,1111122' 
DISL,ioos:station:DISL:KATA:1,2017-12-01T15:00:00Z,30.2583,-88.2131,0.0,2.0,23.0,99.0,'11111222,11111222,11144222' 
DISL,ioos:station:DISL:KATA:1,2017-12-01T15:30:00Z,30.2583,-88.2131,0.0,2.04,16.52,-9999.0,'1111122,1111122,1111122' 
DISL,ioos:station:DISL:KATA:1,2017-12-01T16:00:00Z,30.2583,-88.2131,0.0,2.3,66.0,99.0,'11111222,11111222,11144222' 
DISL,ioos:station:DISL:KATA:1,2017-12-01T16:30:00Z,30.2583,-88.2131,0.0,2.85,36.99,-9999.0,'1111122,1111122,1111122' 
DISL,ioos:station:DISL:KATA:1,2017-12-01T17:00:00Z,30.2583,-88.2131,0.0,2.8,38.0,99.0,'11111222,11111222,11144222' 
DISL,ioos:station:DISL:KATA:1,2017-12-01T17:30:00Z,30.2583,-88.2131,0.0,2.19,57.08,-9999.0,'1111122,1111122,1111122' 
DISL,ioos:station:DISL:KATA:1,2017-12-01T18:00:00Z,30.2583,-88.2131,0.0,2.6,98.0,99.0,'11111222,11111222,11144222' 
DISL,ioos:station:DISL:KATA:1,2017-12-01T18:30:00Z,30.2583,-88.2131,0.0,2.72,89.7,-9999.0,'1111122,1111122,1111122' 
DISL,ioos:station:DISL:KATA:1,2017-12-01T19:00:00Z,30.2583,-88.2131,0.0,1.6,69.0,99.0,'11111222,11111222,11144222' 
DISL,ioos:station:DISL:KATA:1,2017-12-01T19:30:00Z,30.2583,-88.2131,0.0,1.31,40.18,-9999.0,'1111122,1111122,1111122' 
DISL,ioos:station:DISL:KATA:1,2017-12-01T20:00:00Z,30.2583,-88.2131,0.0,0.4,333.0,99.0,'11111222,11111222,11144222' 
DISL,ioos:station:DISL:KATA:1,2017-12-01T20:30:00Z,30.2583,-88.2131,0.0,0.77,340.2,-9999.0,'1111122,1111122,1111122' 
DISL,ioos:station:DISL:KATA:1,2017-12-01T21:00:00Z,30.2583,-88.2131,0.0,0.1,91.0,99.0,'11111222,11111222,11144222' 
DISL,ioos:station:DISL:KATA:1,2017-12-01T21:30:00Z,30.2583,-88.2131,0.0,0.23,208.0,-9999.0,'1111122,1111122,1111122' 
DISL,ioos:station:DISL:KATA:1,2017-12-01T22:00:00Z,30.2583,-88.2131,0.0,0.2,240.0,99.0,'11111222,11111222,11144222' 
DISL,ioos:station:DISL:KATA:1,2017-12-01T22:30:00Z,30.2583,-88.2131,0.0,0.84,282.9,-9999.0,'1111122,1111122,1111122' 
DISL,ioos:station:DISL:KATA:1,2017-12-01T23:00:00Z,30.2583,-88.2131,0.0,1.4,295.0,99.0,'11111222,11111222,11144222' 
DISL,ioos:station:DISL:KATA:1,2017-12-01T23:30:00Z,30.2583,-88.2131,0.0,1.41,293.4,-9999.0,'1111122,1111122,1111122' 
DISL,ioos:station:DISL:KATA:1,2017-12-02T00:00:00Z,30.2583,-88.2131,0.0,1.1,281.0,99.0,'11111222,11111222,11144222' 
DISL,ioos:station:DISL:KATA:1,2017-12-02T00:30:00Z,30.2583,-88.2131,0.0,4.52,347.9,-9999.0,'1111122,1111122,1111122' 
DISL,ioos:station:DISL:KATA:1,2017-12-02T01:00:00Z,30.2583,-88.2131,0.0,5.3,348.0,99.0,'11111222,11111222,11144222' 
DISL,ioos:station:DISL:KATA:1,2017-12-02T01:30:00Z,30.2583,-88.2131,0.0,7.16,8.47,-9999.0,'1111122,1111122,1111122' 
DISL,ioos:station:DISL:KATA:1,2017-12-02T02:00:00Z,30.2583,-88.2131,0.0,5.4,15.0,99.0,'11111222,11111222,11144222' 
DISL,ioos:station:DISL:KATA:1,2017-12-02T02:30:00Z,30.2583,-88.2131,0.0,3.25,15.81,-9999.0,'1111122,1111122,1111122' 
DISL,ioos:station:DISL:KATA:1,2017-12-02T03:00:00Z,30.2583,-88.2131,0.0,3.8,16.0,99.0,'11111222,11111222,11144222' 
DISL,ioos:station:DISL:KATA:1,2017-12-02T03:30:00Z,30.2583,-88.2131,0.0,3.32,356.9,-9999.0,'1111122,1111122,1111122' 
DISL,ioos:station:DISL:KATA:1,2017-12-02T04:00:00Z,30.2583,-88.2131,0.0,2.2,354.0,99.0,'11111222,11111222,11144222' 
DISL,ioos:station:DISL:KATA:1,2017-12-02T04:30:00Z,30.2583,-88.2131,0.0,2.54,37.37,-9999.0,'1111122,1111122,1111122' 
DISL,ioos:station:DISL:KATA:1,2017-12-02T05:00:00Z,30.2583,-88.2131,0.0,3.5,28.0,99.0,'11111222,11111222,11144222' 
DISL,ioos:station:DISL:KATA:1,2017-12-02T05:30:00Z,30.2583,-88.2131,0.0,2.92,36.74,-9999.0,'1111122,1111122,1111122' 
DISL,ioos:station:DISL:KATA:1,2017-12-02T06:00:00Z,30.2583,-88.2131,0.0,3.0,45.0,99.0,'11111222,11111222,11144222' 
DISL,ioos:station:DISL:KATA:1,2017-12-02T06:30:00Z,30.2583,-88.2131,0.0,2.82,43.4,-9999.0,'1111122,1111122,1111122' 
DISL,ioos:station:DISL:KATA:1,2017-12-02T07:00:00Z,30.2583,-88.2131,0.0,1.81,52.6,-9999.0,'1111122,1111122,1111122' 
DISL,ioos:station:DISL:KATA:1,2017-12-02T07:30:00Z,30.2583,-88.2131,0.0,0.7,302.0,99.0,'11111222,11111222,11144222' 
DISL,ioos:station:DISL:KATA:1,2017-12-02T08:00:00Z,30.2583,-88.2131,0.0,1.3,22.0,99.0,'11111222,11111222,11144222' 
DISL,ioos:station:DISL:KATA:1,2017-12-02T08:30:00Z,30.2583,-88.2131,0.0,2.09,358.1,-9999.0,'1111122,1111122,1111122' 
DISL,ioos:station:DISL:KATA:1,2017-12-02T09:00:00Z,30.2583,-88.2131,0.0,3.7,10.0,99.0,'11111222,11111222,11144222' 
DISL,ioos:station:DISL:KATA:1,2017-12-02T09:30:00Z,30.2583,-88.2131,0.0,3.5,22.5,-9999.0,'1111122,1111122,1111122' 
DISL,ioos:station:DISL:KATA:1,2017-12-02T10:00:00Z,30.2583,-88.2131,0.0,3.9,26.0,99.0,'11111222,11111222,11144222' 
DISL,ioos:station:DISL:KATA:1,2017-12-02T10:30:00Z,30.2583,-88.2131,0.0,4.15,21.47,-9999.0,'1111122,1111122,1111122' 
DISL,ioos:station:DISL:KATA:1,2017-12-02T11:00:00Z,30.2583,-88.2131,0.0,3.74,20.87,-9999.0,'1111122,1111122,1111122' 
DISL,ioos:station:DISL:KATA:1,2017-12-02T11:30:00Z,30.2583,-88.2131,0.0,4.1,27.0,99.0,'11111222,11111222,11144222' 
DISL,ioos:station:DISL:KATA:1,2017-12-02T12:00:00Z,30.2583,-88.2131,0.0,4.1,22.0,99.0,'11111222,11111222,11144222' 
DISL,ioos:station:DISL:KATA:1,2017-12-02T12:30:00Z,30.2583,-88.2131,0.0,3.82,20.89,-9999.0,'1111122,1111122,1111122' 
DISL,ioos:station:DISL:KATA:1,2017-12-02T13:00:00Z,30.2583,-88.2131,0.0,2.8,35.0,99.0,'11111222,11111222,11144222' 
DISL,ioos:station:DISL:KATA:1,2017-12-02T13:30:00Z,30.2583,-88.2131,0.0,3.48,25.21,-9999.0,'1111122,1111122,1111122' 
DISL,ioos:station:DISL:KATA:1,2017-12-02T14:00:00Z,30.2583,-88.2131,0.0,2.5,15.0,99.0,'11111222,11111222,11144222' 
DISL,ioos:station:DISL:KATA:1,2017-12-02T14:30:00Z,30.2583,-88.2131,0.0,2.98,18.94,-9999.0,'1111122,1111122,1111122' 
DISL,ioos:station:DISL:KATA:1,2017-12-02T15:00:00Z,30.2583,-88.2131,0.0,2.2,31.0,99.0,'11111222,11111222,11144222' 
DISL,ioos:station:DISL:KATA:1,2017-12-02T15:30:00Z,30.2583,-88.2131,0.0,1.62,47.77,-9999.0,'1111122,1111122,1111122' 
DISL,ioos:station:DISL:KATA:1,2017-12-02T16:00:00Z,30.2583,-88.2131,0.0,2.4,45.0,99.0,'11111222,11111222,11144222' 
DISL,ioos:station:DISL:KATA:1,2017-12-02T16:30:00Z,30.2583,-88.2131,0.0,3.2,83.3,-9999.0,'1111122,1111122,1111122' 
DISL,ioos:station:DISL:KATA:1,2017-12-02T17:00:00Z,30.2583,-88.2131,0.0,2.4,82.0,99.0,'11111222,11111222,11144222' 
DISL,ioos:station:DISL:KATA:1,2017-12-02T17:30:00Z,30.2583,-88.2131,0.0,2.7,101.8,-9999.0,'1111122,1111122,1111122' 
DISL,ioos:station:DISL:KATA:1,2017-12-02T18:00:00Z,30.2583,-88.2131,0.0,3.5,89.0,99.0,'11111222,11111222,11144222' 
DISL,ioos:station:DISL:KATA:1,2017-12-02T18:30:00Z,30.2583,-88.2131,0.0,3.0,102.7,-9999.0,'1111122,1111122,1111122' 
DISL,ioos:station:DISL:KATA:1,2017-12-02T19:00:00Z,30.2583,-88.2131,0.0,3.6,95.0,99.0,'11111222,11111222,11144222' 
DISL,ioos:station:DISL:KATA:1,2017-12-02T19:30:00Z,30.2583,-88.2131,0.0,3.11,96.3,-9999.0,'1111122,1111122,1111122' 
DISL,ioos:station:DISL:KATA:1,2017-12-02T20:00:00Z,30.2583,-88.2131,0.0,2.8,94.0,99.0,'11111222,11111222,11144222' 
DISL,ioos:station:DISL:KATA:1,2017-12-02T20:30:00Z,30.2583,-88.2131,0.0,2.05,95.8,-9999.0,'1111122,1111122,1111122' 
DISL,ioos:station:DISL:KATA:1,2017-12-02T21:00:00Z,30.2583,-88.2131,0.0,1.3,118.0,99.0,'11111222,11111222,11144222' 
DISL,ioos:station:DISL:KATA:1,2017-12-02T21:30:00Z,30.2583,-88.2131,0.0,1.13,210.3,-9999.0,'1111122,1111122,1111122' 
DISL,ioos:station:DISL:KATA:1,2017-12-02T22:00:00Z,30.2583,-88.2131,0.0,1.3,232.0,99.0,'11111222,11111222,11144222' 
DISL,ioos:station:DISL:KATA:1,2017-12-02T22:30:00Z,30.2583,-88.2131,0.0,1.3,232.1,-9999.0,'1111122,1111122,1111122' 
DISL,ioos:station:DISL:KATA:1,2017-12-02T23:00:00Z,30.2583,-88.2131,0.0,0.8,252.0,99.0,'11111222,11111222,11144222' 
DISL,ioos:station:DISL:KATA:1,2017-12-02T23:30:00Z,30.2583,-88.2131,0.0,0.76,272.2,-9999.0,'1111122,1111122,1111122' 
DISL,ioos:station:DISL:KATA:1,2017-12-03T00:00:00Z,30.2583,-88.2131,0.0,1.8,274.0,99.0,'11111222,11111222,11144222' 
DISL,ioos:station:DISL:KATA:1,2017-12-03T00:30:00Z,30.2583,-88.2131,0.0,0.18,299.7,-9999.0,'1111122,1111122,1111122' 
DISL,ioos:station:DISL:KATA:1,2017-12-03T01:00:00Z,30.2583,-88.2131,0.0,1.0,258.0,99.0,'11111222,11111222,11144222' 
DISL,ioos:station:DISL:KATA:1,2017-12-03T01:30:00Z,30.2583,-88.2131,0.0,0.62,280.4,-9999.0,'1111122,1111122,1111122' 
DISL,ioos:station:DISL:KATA:1,2017-12-03T02:00:00Z,30.2583,-88.2131,0.0,0.9,301.0,99.0,'11111222,11111222,11144222' 
DISL,ioos:station:DISL:KATA:1,2017-12-03T02:30:00Z,30.2583,-88.2131,0.0,0.95,334.7,-9999.0,'1111122,1111122,1111122' 
DISL,ioos:station:DISL:KATA:1,2017-12-03T03:00:00Z,30.2583,-88.2131,0.0,0.4,31.0,99.0,'11111222,11111222,11144222' 
DISL,ioos:station:DISL:KATA:1,2017-12-03T03:30:00Z,30.2583,-88.2131,0.0,1.45,295.3,-9999.0,'1111122,1111122,1111122' 
DISL,ioos:station:DISL:KATA:1,2017-12-03T04:00:00Z,30.2583,-88.2131,0.0,2.9,2.0,99.0,'11111222,11111222,11144222' 
DISL,ioos:station:DISL:KATA:1,2017-12-03T04:30:00Z,30.2583,-88.2131,0.0,2.44,9.02,-9999.0,'1111122,1111122,1111122' 
DISL,ioos:station:DISL:KATA:1,2017-12-03T05:00:00Z,30.2583,-88.2131,0.0,3.2,23.0,99.0,'11111222,11111222,11144222' 
DISL,ioos:station:DISL:KATA:1,2017-12-03T05:30:00Z,30.2583,-88.2131,0.0,4.3,34.05,-9999.0,'1111122,1111122,1111122' 
DISL,ioos:station:DISL:KATA:1,2017-12-03T06:00:00Z,30.2583,-88.2131,0.0,4.4,33.0,99.0,'11111222,11111222,11144222' 
DISL,ioos:station:DISL:KATA:1,2017-12-03T06:30:00Z,30.2583,-88.2131,0.0,4.15,33.75,-9999.0,'1111122,1111122,1111122' 
DISL,ioos:station:DISL:KATA:1,2017-12-03T07:00:00Z,30.2583,-88.2131,0.0,3.3,42.0,99.0,'11111222,11111222,11144222' 
DISL,ioos:station:DISL:KATA:1,2017-12-03T07:30:00Z,30.2583,-88.2131,0.0,2.96,43.51,-9999.0,'1111122,1111122,1111122' 
DISL,ioos:station:DISL:KATA:1,2017-12-03T08:00:00Z,30.2583,-88.2131,0.0,4.5,29.0,99.0,'11111222,11111222,11144222' 
DISL,ioos:station:DISL:KATA:1,2017-12-03T08:30:00Z,30.2583,-88.2131,0.0,4.41,34.07,-9999.0,'1111122,1111122,1111122' 
DISL,ioos:station:DISL:KATA:1,2017-12-03T09:00:00Z,30.2583,-88.2131,0.0,4.3,38.0,99.0,'11111222,11111222,11144222' 
DISL,ioos:station:DISL:KATA:1,2017-12-03T09:30:00Z,30.2583,-88.2131,0.0,4.97,36.91,-9999.0,'1111122,1111122,1111122' 
DISL,ioos:station:DISL:KATA:1,2017-12-03T10:00:00Z,30.2583,-88.2131,0.0,5.4,41.0,99.0,'11111222,11111222,11144222' 
DISL,ioos:station:DISL:KATA:1,2017-12-03T10:30:00Z,30.2583,-88.2131,0.0,4.48,41.38,-9999.0,'1111122,1111122,1111122' 
DISL,ioos:station:DISL:KATA:1,2017-12-03T11:00:00Z,30.2583,-88.2131,0.0,5.0,46.0,99.0,'11111222,11111222,11144222' 
DISL,ioos:station:DISL:KATA:1,2017-12-03T11:30:00Z,30.2583,-88.2131,0.0,5.17,50.19,-9999.0,'1111122,1111122,1111122' 
DISL,ioos:station:DISL:KATA:1,2017-12-03T12:00:00Z,30.2583,-88.2131,0.0,5.0,47.0,99.0,'11111222,11111222,11144222' 
DISL,ioos:station:DISL:KATA:1,2017-12-03T12:30:00Z,30.2583,-88.2131,0.0,5.02,39.84,-9999.0,'1111122,1111122,1111122' 
DISL,ioos:station:DISL:KATA:1,2017-12-03T13:00:00Z,30.2583,-88.2131,0.0,5.0,39.0,99.0,'11111222,11111222,11144222' 
DISL,ioos:station:DISL:KATA:1,2017-12-03T13:30:00Z,30.2583,-88.2131,0.0,5.24,44.55,-9999.0,'1111122,1111122,1111122' 
DISL,ioos:station:DISL:KATA:1,2017-12-03T14:00:00Z,30.2583,-88.2131,0.0,4.9,40.0,99.0,'11111222,11111222,11144222' 
DISL,ioos:station:DISL:KATA:1,2017-12-03T14:30:00Z,30.2583,-88.2131,0.0,6.75,58.44,-9999.0,'1111122,1111122,1111122' 
DISL,ioos:station:DISL:KATA:1,2017-12-03T15:00:00Z,30.2583,-88.2131,0.0,6.2,53.0,99.0,'11111222,11111222,11144222' 
DISL,ioos:station:DISL:KATA:1,2017-12-03T15:30:00Z,30.2583,-88.2131,0.0,5.52,55.74,-9999.0,'1111122,1111122,1111122' 
DISL,ioos:station:DISL:KATA:1,2017-12-03T16:00:00Z,30.2583,-88.2131,0.0,5.8,56.0,99.0,'11111222,11111222,11144222' 
DISL,ioos:station:DISL:KATA:1,2017-12-03T16:30:00Z,30.2583,-88.2131,0.0,4.46,50.6,-9999.0,'1111122,1111122,1111122' 
DISL,ioos:station:DISL:KATA:1,2017-12-03T17:00:00Z,30.2583,-88.2131,0.0,3.8,68.0,99.0,'11111222,11111222,11144222' 
DISL,ioos:station:DISL:KATA:1,2017-12-03T17:30:00Z,30.2583,-88.2131,0.0,3.16,65.47,-9999.0,'1111122,1111122,1111122' 
DISL,ioos:station:DISL:KATA:1,2017-12-03T18:00:00Z,30.2583,-88.2131,0.0,3.4,68.0,99.0,'11111222,11111222,11144222' 
DISL,ioos:station:DISL:KATA:1,2017-12-03T18:30:00Z,30.2583,-88.2131,0.0,2.36,41.39,-9999.0,'1111122,1111122,1111122' 
DISL,ioos:station:DISL:KATA:1,2017-12-03T19:00:00Z,30.2583,-88.2131,0.0,0.9,20.0,99.0,'11111222,11111222,11144222' 
DISL,ioos:station:DISL:KATA:1,2017-12-03T19:30:00Z,30.2583,-88.2131,0.0,3.09,113.7,-9999.0,'1111122,1111122,1111122' 
DISL,ioos:station:DISL:KATA:1,2017-12-03T20:00:00Z,30.2583,-88.2131,0.0,3.0,111.0,99.0,'11111222,11111222,11144222' 
DISL,ioos:station:DISL:KATA:1,2017-12-03T20:30:00Z,30.2583,-88.2131,0.0,3.19,123.7,-9999.0,'1111122,1111122,1111122' 
DISL,ioos:station:DISL:KATA:1,2017-12-03T21:00:00Z,30.2583,-88.2131,0.0,2.2,139.0,99.0,'11111222,11111222,11144222' 
DISL,ioos:station:DISL:KATA:1,2017-12-03T21:30:00Z,30.2583,-88.2131,0.0,2.01,137.8,-9999.0,'1111122,1111122,1111122' 
DISL,ioos:station:DISL:KATA:1,2017-12-03T22:00:00Z,30.2583,-88.2131,0.0,1.9,102.0,99.0,'11111222,11111222,11144222' 
DISL,ioos:station:DISL:KATA:1,2017-12-03T22:30:00Z,30.2583,-88.2131,0.0,2.66,106.2,-9999.0,'1111122,1111122,1111122' 
DISL,ioos:station:DISL:KATA:1,2017-12-03T23:00:00Z,30.2583,-88.2131,0.0,1.0,68.0,99.0,'11111222,11111222,11144222' 
DISL,ioos:station:DISL:KATA:1,2017-12-03T23:30:00Z,30.2583,-88.2131,0.0,2.13,62.99,-9999.0,'1111122,1111122,1111122' 
DISL,ioos:station:DISL:KATA:1,2017-12-04T00:00:00Z,30.2583,-88.2131,0.0,1.7,19.0,99.0,'11111222,11111222,11144222' 
DISL,ioos:station:DISL:KATA:1,2017-12-04T00:30:00Z,30.2583,-88.2131,0.0,2.46,10.72,-9999.0,'1111122,1111122,1111122' 
DISL,ioos:station:DISL:KATA:1,2017-12-04T01:00:00Z,30.2583,-88.2131,0.0,2.1,1.0,99.0,'11111222,11111222,11144222' 
DISL,ioos:station:DISL:KATA:1,2017-12-04T01:30:00Z,30.2583,-88.2131,0.0,2.68,350.0,-9999.0,'1111122,1111122,1111122' 
DISL,ioos:station:DISL:KATA:1,2017-12-04T02:00:00Z,30.2583,-88.2131,0.0,2.95,35.04,-9999.0,'1111122,1111122,1111122' 
DISL,ioos:station:DISL:KATA:1,2017-12-04T02:30:00Z,30.2583,-88.2131,0.0,3.5,30.0,99.0,'11111222,11111222,11144222' 
DISL,ioos:station:DISL:KATA:1,2017-12-04T03:00:00Z,30.2583,-88.2131,0.0,3.6,43.0,99.0,'11111222,11111222,11144222' 
DISL,ioos:station:DISL:KATA:1,2017-12-04T03:30:00Z,30.2583,-88.2131,0.0,2.95,57.8,-9999.0,'1111122,1111122,1111122' 
DISL,ioos:station:DISL:KATA:1,2017-12-04T04:00:00Z,30.2583,-88.2131,0.0,4.8,72.0,99.0,'11111222,11111222,11144222' 
DISL,ioos:station:DISL:KATA:1,2017-12-04T04:30:00Z,30.2583,-88.2131,0.0,4.75,84.1,-9999.0,'1111122,1111122,1111122' 
DISL,ioos:station:DISL:KATA:1,2017-12-04T05:00:00Z,30.2583,-88.2131,0.0,3.7,96.0,99.0,'11111222,11111222,11144222' 
DISL,ioos:station:DISL:KATA:1,2017-12-04T05:30:00Z,30.2583,-88.2131,0.0,3.39,74.44,-9999.0,'1111122,1111122,1111122' 
DISL,ioos:station:DISL:KATA:1,2017-12-04T06:00:00Z,30.2583,-88.2131,0.0,4.2,89.0,99.0,'11111222,11111222,11144222' 
DISL,ioos:station:DISL:KATA:1,2017-12-04T06:30:00Z,30.2583,-88.2131,0.0,4.22,90.1,-9999.0,'1111122,1111122,1111122' 
DISL,ioos:station:DISL:KATA:1,2017-12-04T07:00:00Z,30.2583,-88.2131,0.0,5.1,84.0,99.0,'11111222,11111222,11144222' 
DISL,ioos:station:DISL:KATA:1,2017-12-04T07:30:00Z,30.2583,-88.2131,0.0,4.86,86.5,-9999.0,'1111122,1111122,1111122' 
DISL,ioos:station:DISL:KATA:1,2017-12-04T08:00:00Z,30.2583,-88.2131,0.0,5.1,85.0,99.0,'11111222,11111222,11144222' 
DISL,ioos:station:DISL:KATA:1,2017-12-04T08:30:00Z,30.2583,-88.2131,0.0,5.13,86.9,-9999.0,'1111122,1111122,1111122' 
DISL,ioos:station:DISL:KATA:1,2017-12-04T09:00:00Z,30.2583,-88.2131,0.0,6.3,82.0,99.0,'11111222,11111222,11144222' 
DISL,ioos:station:DISL:KATA:1,2017-12-04T09:30:00Z,30.2583,-88.2131,0.0,6.05,82.1,-9999.0,'1111122,1111122,1111122' 
DISL,ioos:station:DISL:KATA:1,2017-12-04T10:00:00Z,30.2583,-88.2131,0.0,5.8,84.0,99.0,'11111222,11111222,11144222' 
DISL,ioos:station:DISL:KATA:1,2017-12-04T10:30:00Z,30.2583,-88.2131,0.0,5.04,85.5,-9999.0,'1111122,1111122,1111122' 
DISL,ioos:station:DISL:KATA:1,2017-12-04T11:00:00Z,30.2583,-88.2131,0.0,4.8,86.0,99.0,'11111222,11111222,11144222' 
DISL,ioos:station:DISL:KATA:1,2017-12-04T11:30:00Z,30.2583,-88.2131,0.0,3.79,87.6,-9999.0,'1111122,1111122,1111122' 
DISL,ioos:station:DISL:KATA:1,2017-12-04T12:00:00Z,30.2583,-88.2131,0.0,3.6,80.0,99.0,'11111222,11111222,11144222' 
DISL,ioos:station:DISL:KATA:1,2017-12-04T12:30:00Z,30.2583,-88.2131,0.0,5.06,70.99,-9999.0,'1111122,1111122,1111122' 
DISL,ioos:station:DISL:KATA:1,2017-12-04T13:00:00Z,30.2583,-88.2131,0.0,4.0,73.0,99.0,'11111222,11111222,11144222' 
DISL,ioos:station:DISL:KATA:1,2017-12-04T13:30:00Z,30.2583,-88.2131,0.0,5.57,76.02,-9999.0,'1111122,1111122,1111122' 
DISL,ioos:station:DISL:KATA:1,2017-12-04T14:00:00Z,30.2583,-88.2131,0.0,5.0,72.0,99.0,'11111222,11111222,11144222' 
DISL,ioos:station:DISL:KATA:1,2017-12-04T14:30:00Z,30.2583,-88.2131,0.0,5.57,72.66,-9999.0,'1111122,1111122,1111122' 
DISL,ioos:station:DISL:KATA:1,2017-12-04T15:00:00Z,30.2583,-88.2131,0.0,5.3,74.0,99.0,'11111222,11111222,11144222' 
DISL,ioos:station:DISL:KATA:1,2017-12-04T15:30:00Z,30.2583,-88.2131,0.0,5.71,77.57,-9999.0,'1111122,1111122,1111122' 
DISL,ioos:station:DISL:KATA:1,2017-12-04T16:00:00Z,30.2583,-88.2131,0.0,5.6,78.0,99.0,'11111222,11111222,11144222' 
DISL,ioos:station:DISL:KATA:1,2017-12-04T16:30:00Z,30.2583,-88.2131,0.0,4.53,74.16,-9999.0,'1111122,1111122,1111122' 
DISL,ioos:station:DISL:KATA:1,2017-12-04T17:00:00Z,30.2583,-88.2131,0.0,4.4,82.0,99.0,'11111222,11111222,11144222' 
DISL,ioos:station:DISL:KATA:1,2017-12-04T17:30:00Z,30.2583,-88.2131,0.0,5.58,101.9,-9999.0,'1111122,1111122,1111122' 
DISL,ioos:station:DISL:KATA:1,2017-12-04T18:00:00Z,30.2583,-88.2131,0.0,7.8,110.0,99.0,'11111222,11111222,11144222' 
DISL,ioos:station:DISL:KATA:1,2017-12-04T18:30:00Z,30.2583,-88.2131,0.0,7.63,108.6,-9999.0,'1111122,1111122,1111122' 
DISL,ioos:station:DISL:KATA:1,2017-12-04T19:00:00Z,30.2583,-88.2131,0.0,8.2,109.0,99.0,'11111222,11111222,11144222' 
DISL,ioos:station:DISL:KATA:1,2017-12-04T19:30:00Z,30.2583,-88.2131,0.0,9.33,108.8,-9999.0,'1111122,1111122,1111122' 
DISL,ioos:station:DISL:KATA:1,2017-12-04T20:00:00Z,30.2583,-88.2131,0.0,8.3,107.0,99.0,'11111222,11111222,11144222' 
DISL,ioos:station:DISL:KATA:1,2017-12-04T20:30:00Z,30.2583,-88.2131,0.0,8.39,109.9,-9999.0,'1111122,1111122,1111122' 
DISL,ioos:station:DISL:KATA:1,2017-12-04T21:00:00Z,30.2583,-88.2131,0.0,8.3,111.0,99.0,'11111222,11111222,11144222' 
DISL,ioos:station:DISL:KATA:1,2017-12-04T21:30:00Z,30.2583,-88.2131,0.0,8.47,109.2,-9999.0,'1111122,1111122,1111122' 
DISL,ioos:station:DISL:KATA:1,2017-12-04T22:00:00Z,30.2583,-88.2131,0.0,8.5,107.0,99.0,'11111222,11111222,11144222' 
DISL,ioos:station:DISL:KATA:1,2017-12-04T22:30:00Z,30.2583,-88.2131,0.0,8.7,110.8,-9999.0,'1111122,1111122,1111122' 
DISL,ioos:station:DISL:KATA:1,2017-12-04T23:00:00Z,30.2583,-88.2131,0.0,8.5,111.0,99.0,'11111222,11111222,11144222' 
DISL,ioos:station:DISL:KATA:1,2017-12-04T23:30:00Z,30.2583,-88.2131,0.0,7.77,116.6,-9999.0,'1111122,1111122,1111122' 
DISL,ioos:station:DISL:KATA:1,2017-12-05T00:00:00Z,30.2583,-88.2131,0.0,7.9,108.0,99.0,'11111222,11111222,11144222' 
DISL,ioos:station:DISL:KATA:1,2017-12-05T00:30:00Z,30.2583,-88.2131,0.0,5.65,108.9,-9999.0,'1111122,1111122,1111122' 
DISL,ioos:station:DISL:KATA:1,2017-12-05T01:00:00Z,30.2583,-88.2131,0.0,6.7,103.0,99.0,'11111222,11111222,11144222' 
DISL,ioos:station:DISL:KATA:1,2017-12-05T01:30:00Z,30.2583,-88.2131,0.0,5.24,90.6,-9999.0,'1111122,1111122,1111122' 
DISL,ioos:station:DISL:KATA:1,2017-12-05T02:00:00Z,30.2583,-88.2131,0.0,6.4,95.0,99.0,'11111222,11111222,11144222' 
DISL,ioos:station:DISL:KATA:1,2017-12-05T02:30:00Z,30.2583,-88.2131,0.0,6.81,96.3,-9999.0,'1111122,1111122,1111122' 
DISL,ioos:station:DISL:KATA:1,2017-12-05T03:00:00Z,30.2583,-88.2131,0.0,5.0,97.0,99.0,'11111222,11111222,11144222' 
DISL,ioos:station:DISL:KATA:1,2017-12-05T03:30:00Z,30.2583,-88.2131,0.0,4.33,92.2,-9999.0,'1111122,1111122,1111122' 
DISL,ioos:station:DISL:KATA:1,2017-12-05T04:00:00Z,30.2583,-88.2131,0.0,3.7,107.0,99.0,'11111222,11111222,11144222' 
DISL,ioos:station:DISL:KATA:1,2017-12-05T04:30:00Z,30.2583,-88.2131,0.0,4.03,111.7,-9999.0,'1111122,1111122,1111122' 
DISL,ioos:station:DISL:KATA:1,2017-12-05T05:00:00Z,30.2583,-88.2131,0.0,4.5,114.0,99.0,'11111222,11111222,11144222' 
DISL,ioos:station:DISL:KATA:1,2017-12-05T05:30:00Z,30.2583,-88.2131,0.0,4.54,125.0,-9999.0,'1111122,1111122,1111122' 